DW6345 Murcia ES current weather conditions

sailwx.info

Wind from 045 at 0 knots gusting 2

Air temperature 24.4° C
Dewpoint 21.0° C

Last reported at 2016-Jul-30 00:54 UTC.
Time now 2016-Jul-30 02:01 UTC

Location: N 37°60' W 001°06'.
View on Google Maps.

See reports from other nearby stations

  
Tides and Currents Weather Stations Pressure Air Temp Water Temp Dewpoint Dewpoint Depression Visibility Wind Speed Wind Dir Waves Ship Positions
date/time (UTC)wind fromknots sea level pressurealtimeterstation pressurevisibilityair tempwater tempwave heightnotes
2016-Jul-30 00:54 045 0 gusting 2 24.4
2016-Jul-30 00:49 090 24.4
2016-Jul-30 00:44 045 24.4
2016-Jul-30 00:39 045 25.0
2016-Jul-30 00:34 090 0 gusting 2 25.0
2016-Jul-30 00:29 090 0 gusting 1 25.0
2016-Jul-30 00:24 090 0 gusting 1 25.0
2016-Jul-30 00:19 096 25.0
2016-Jul-30 00:14 090 25.0
2016-Jul-30 00:09 090 0 gusting 1 25.0
2016-Jul-30 00:04 090 0 gusting 1 25.0
2016-Jul-29 23:59 090 0 gusting 1 25.0
2016-Jul-29 23:54 090 0 gusting 2 25.0
2016-Jul-29 23:49 090 0 gusting 2 25.0
2016-Jul-29 23:44 131 25.0
2016-Jul-29 23:39 090 0 gusting 2 25.0
2016-Jul-29 23:34 138 0 gusting 1 25.0
2016-Jul-29 23:29 174 25.6
2016-Jul-29 23:24 090 1 gusting 2 25.6
2016-Jul-29 23:19 132 25.6
2016-Jul-29 23:14 131 0 gusting 2 25.6
2016-Jul-29 23:09 090 0 gusting 2 25.6
2016-Jul-29 23:04 045 0 gusting 2 25.6
2016-Jul-29 22:59 090 0 gusting 2 25.6
2016-Jul-29 22:54 045 0 gusting 4 25.6
2016-Jul-29 22:49 045 1 gusting 4 25.6
2016-Jul-29 22:44 084 1 gusting 4 25.6
2016-Jul-29 22:39 090 1 gusting 4 25.6
2016-Jul-29 22:34 045 1 gusting 5 25.6
2016-Jul-29 22:29 050 2 gusting 4 25.6
2016-Jul-29 22:24 090 1 gusting 5 25.6
2016-Jul-29 22:19 048 2 gusting 5 25.6
2016-Jul-29 22:14 081 0 gusting 5 26.1
2016-Jul-29 22:09 045 2 gusting 7 26.1
2016-Jul-29 22:04 090 5 gusting 7 26.1
2016-Jul-29 21:59 090 2 gusting 8 26.1
2016-Jul-29 21:54 090 6 gusting 8 26.1
2016-Jul-29 21:49 090 4 gusting 6 26.1
2016-Jul-29 21:44 090 4 gusting 6 26.1
2016-Jul-29 21:39 085 5 gusting 7 26.1
2016-Jul-29 21:34 045 3 gusting 6 26.1
2016-Jul-29 21:29 090 2 gusting 7 26.1
2016-Jul-29 21:24 069 4 gusting 6 26.1
2016-Jul-29 21:19 045 3 gusting 6 26.1
2016-Jul-29 21:14 090 3 gusting 7 26.7
2016-Jul-29 21:09 051 4 gusting 6 26.7
2016-Jul-29 21:04 045 6 gusting 6 26.7
2016-Jul-29 20:59 049 5 gusting 7 26.7
2016-Jul-29 20:54 090 5 gusting 8 26.7
2016-Jul-29 20:49 090 4 gusting 7 26.7
2016-Jul-29 20:44 090 5 gusting 8 26.7
2016-Jul-29 20:39 090 4 gusting 10 26.7
2016-Jul-29 20:34 050 5 gusting 8 26.7
2016-Jul-29 20:29 024 6 gusting 11 26.7
2016-Jul-29 20:24 048 7 gusting 12 27.2
2016-Jul-29 20:19 050 9 gusting 13 27.2
2016-Jul-29 20:14 048 7 gusting 13 27.2
2016-Jul-29 20:09 049 8 gusting 12 27.2
2016-Jul-29 20:04 048 6 gusting 10 27.8
2016-Jul-29 19:59 085 4 gusting 10 27.8
2016-Jul-29 19:54 087 7 gusting 10 27.8
2016-Jul-29 19:49 090 6 gusting 11 28.3
2016-Jul-29 19:44 090 6 gusting 11 28.3
2016-Jul-29 19:39 090 6 gusting 10 28.9
2016-Jul-29 19:34 090 4 gusting 7 28.9
2016-Jul-29 19:29 084 5 gusting 8 29.4
2016-Jul-29 19:24 090 6 gusting 11 29.4
2016-Jul-29 19:19 090 6 gusting 8 30.0
2016-Jul-29 19:14 050 5 gusting 8 30.0
2016-Jul-29 19:09 125 5 gusting 8 30.6
2016-Jul-29 19:04 090 1 gusting 6 30.6
2016-Jul-29 18:59 135 3 gusting 7 30.6
2016-Jul-29 18:54 085 4 gusting 7 30.6
2016-Jul-29 18:49 050 4 gusting 10 31.1
2016-Jul-29 18:44 090 5 gusting 6 31.1
2016-Jul-29 18:39 090 5 gusting 11 31.1
2016-Jul-29 18:34 049 6 gusting 11 31.7
2016-Jul-29 18:29 090 4 gusting 8 31.7
2016-Jul-29 18:24 090 5 gusting 8 31.7
2016-Jul-29 18:19 090 5 gusting 11 32.2
2016-Jul-29 18:14 090 6 gusting 11 32.2
2016-Jul-29 18:09 090 4 gusting 8 32.2
2016-Jul-29 18:04 090 6 gusting 11 32.8
2016-Jul-29 17:59 090 6 gusting 12 32.8
2016-Jul-29 17:54 090 5 gusting 12 32.8
2016-Jul-29 17:49 090 7 gusting 11 32.8
2016-Jul-29 17:44 049 5 gusting 11 32.8
2016-Jul-29 17:39 090 7 gusting 11 33.3
2016-Jul-29 17:34 090 6 gusting 11 33.3
2016-Jul-29 17:29 127 7 gusting 12 33.3
2016-Jul-29 17:24 090 6 gusting 12 33.3
2016-Jul-29 17:19 092 6 gusting 11 33.3
2016-Jul-29 17:14 090 8 gusting 13 33.3
2016-Jul-29 17:09 095 7 gusting 13 33.3
2016-Jul-29 17:04 090 8 gusting 13 33.3
2016-Jul-29 16:59 090 6 gusting 13 33.9
2016-Jul-29 16:54 090 8 gusting 14 33.9
2016-Jul-29 16:49 096 6 gusting 12 33.9
2016-Jul-29 16:44 050 9 gusting 14 33.9
2016-Jul-29 16:39 098 6 gusting 13 33.9
2016-Jul-29 16:34 096 7 gusting 13 33.9
2016-Jul-29 16:29 090 11 gusting 17 33.9
2016-Jul-29 16:24 090 8 gusting 13 33.9
2016-Jul-29 16:19 090 8 gusting 17 34.4
2016-Jul-29 16:14 087 8 gusting 17 33.9
2016-Jul-29 16:09 090 8 gusting 19 33.9
2016-Jul-29 16:04 045 11 gusting 15 33.9
2016-Jul-29 15:59 050 8 gusting 15 34.4
2016-Jul-29 15:54 094 7 gusting 13 33.9
2016-Jul-29 15:49 050 9 gusting 14 34.4
2016-Jul-29 15:44 090 7 gusting 13 34.4
2016-Jul-29 15:39 090 6 gusting 14 33.9
2016-Jul-29 15:34 092 9 gusting 14 33.9
2016-Jul-29 15:29 090 7 gusting 17 33.9
2016-Jul-29 15:24 090 7 gusting 14 33.9
2016-Jul-29 15:19 135 7 gusting 17 33.9
2016-Jul-29 15:14 051 7 gusting 15 33.9
2016-Jul-29 15:09 090 8 gusting 14 33.9
2016-Jul-29 15:04 045 9 gusting 13 33.9
2016-Jul-29 14:59 090 6 gusting 14 33.9
2016-Jul-29 14:54 090 7 gusting 13 33.9
2016-Jul-29 14:49 045 6 gusting 14 33.9
2016-Jul-29 14:44 095 10 gusting 14 34.4
2016-Jul-29 14:39 049 8 gusting 14 34.4
2016-Jul-29 14:34 130 7 gusting 17 34.4
2016-Jul-29 14:29 087 5 gusting 13 34.4
2016-Jul-29 14:24 090 8 gusting 13 34.4
2016-Jul-29 14:19 090 7 gusting 13 34.4
2016-Jul-29 14:14 090 5 gusting 11 34.4
2016-Jul-29 14:09 086 6 gusting 13 33.9
2016-Jul-29 13:59 087 6 gusting 12 33.9
2016-Jul-29 13:54 087 7 gusting 12 33.9
2016-Jul-29 13:49 084 8 gusting 14 33.9
2016-Jul-29 13:44 090 5 gusting 12 33.9
2016-Jul-29 13:39 094 7 gusting 13 33.9
2016-Jul-29 13:34 084 8 gusting 13 33.9
2016-Jul-29 13:29 084 5 gusting 13 33.9
2016-Jul-29 13:24 090 6 gusting 11 33.9
2016-Jul-29 13:19 130 6 gusting 13 33.9
2016-Jul-29 13:14 130 4 gusting 14 33.9
2016-Jul-29 13:09 097 8 gusting 14 33.9
2016-Jul-29 13:04 090 6 gusting 12 33.3
2016-Jul-29 12:59 090 6 gusting 13 33.3
2016-Jul-29 12:54 090 7 gusting 12 33.3
2016-Jul-29 12:49 090 6 gusting 12 33.3
2016-Jul-29 12:44 090 8 gusting 12 33.3
2016-Jul-29 12:39 129 7 gusting 13 33.3
2016-Jul-29 12:34 045 6 gusting 11 33.3
2016-Jul-29 12:29 090 6 gusting 13 32.8
2016-Jul-29 12:24 090 6 gusting 13 32.8
2016-Jul-29 12:19 090 9 gusting 14 32.8
2016-Jul-29 12:14 082 6 gusting 13 32.8
2016-Jul-29 12:09 090 7 gusting 13 32.8
2016-Jul-29 12:04 090 7 gusting 13 32.8
2016-Jul-29 11:59 086 7 gusting 13 32.8
2016-Jul-29 11:54 090 8 gusting 13 32.8
2016-Jul-29 11:49 090 6 gusting 14 32.8
2016-Jul-29 11:44 087 8 gusting 14 32.8
2016-Jul-29 11:39 094 5 gusting 13 32.8
2016-Jul-29 11:34 048 5 gusting 13 32.8
2016-Jul-29 11:29 090 6 gusting 13 32.8
2016-Jul-29 11:24 128 7 gusting 13 32.8
2016-Jul-29 11:19 090 5 gusting 11 32.2
2016-Jul-29 11:14 090 6 gusting 11 32.2
2016-Jul-29 11:09 126 7 gusting 13 32.2
2016-Jul-29 11:04 045 3 gusting 13 32.2
2016-Jul-29 10:59 090 6 gusting 13 32.2
2016-Jul-29 10:54 090 7 gusting 13 32.2
2016-Jul-29 10:49 050 4 gusting 10 32.2
2016-Jul-29 10:44 090 3 gusting 8 31.7
2016-Jul-29 10:39 086 5 gusting 8 31.7
2016-Jul-29 10:34 090 4 gusting 11 31.7
2016-Jul-29 10:29 096 6 gusting 11 31.7
2016-Jul-29 10:24 088 6 gusting 10 31.7
2016-Jul-29 10:19 049 4 gusting 6 31.1
2016-Jul-29 10:14 085 4 gusting 10 31.1
2016-Jul-29 10:09 090 6 gusting 11 31.1
2016-Jul-29 10:04 090 4 gusting 8 31.1
2016-Jul-29 09:59 090 2 gusting 7 31.1
2016-Jul-29 09:54 045 4 gusting 7 31.1
2016-Jul-29 09:49 047 2 gusting 7 31.1
2016-Jul-29 09:44 046 2 gusting 7 31.7
2016-Jul-29 09:39 090 2 gusting 5 31.7
2016-Jul-29 09:34 090 2 gusting 5 31.7
2016-Jul-29 09:29 090 2 gusting 4 31.1
2016-Jul-29 09:24 254 0 gusting 5 31.1
2016-Jul-29 09:19 086 30.6
2016-Jul-29 09:14 135 30.6
2016-Jul-29 09:09 045 1 gusting 4 30.6
2016-Jul-29 09:04 047 0 gusting 2 30.0
2016-Jul-29 08:59 099 0 gusting 2 29.4
2016-Jul-29 08:54 047 0 gusting 5 28.9
2016-Jul-29 08:49 040 2 gusting 5 28.9
2016-Jul-29 08:44 045 2 gusting 6 28.3
2016-Jul-29 08:39 315 0 gusting 2 28.3
2016-Jul-29 08:34 315 1 gusting 2 28.3
2016-Jul-29 08:29 315 0 gusting 2 28.3
2016-Jul-29 08:24 321 0 gusting 2 27.8
2016-Jul-29 08:19 274 27.2
2016-Jul-29 08:14 274 1 gusting 5 27.2
2016-Jul-29 08:09 040 0 gusting 4 26.7
2016-Jul-29 08:04 315 2 gusting 5 26.7
2016-Jul-29 07:59 313 1 gusting 4 26.7
2016-Jul-29 07:54 185 0 gusting 5 26.7
2016-Jul-29 07:49 315 1 gusting 2 26.7
2016-Jul-29 07:44 275 1 gusting 2 26.1
2016-Jul-29 07:39 311 0 gusting 2 26.1
2016-Jul-29 07:34 040 25.6
2016-Jul-29 07:29 315 0 gusting 4 25.6
2016-Jul-29 07:24 038 2 gusting 5 25.6
2016-Jul-29 07:19 270 1 gusting 5 25.0
2016-Jul-29 07:14 315 1 gusting 2 25.0
2016-Jul-29 07:09 045 1 gusting 4 25.0
2016-Jul-29 07:04 306 0 gusting 2 25.0
2016-Jul-29 06:59 045 25.0
2016-Jul-29 06:54 266 24.4
2016-Jul-29 06:49 308 0 gusting 5 23.9
2016-Jul-29 06:44 243 2 gusting 5 23.9
2016-Jul-29 06:39 270 2 gusting 4 23.9
2016-Jul-29 06:34 195 0 gusting 2 23.9
2016-Jul-29 06:29 274 0 gusting 2 23.3
2016-Jul-29 06:24 268 0 gusting 2 23.3
2016-Jul-29 06:19 250 23.3
2016-Jul-29 06:14 270 0 gusting 1 23.3
2016-Jul-29 06:09 315 0 gusting 1 23.3
2016-Jul-29 06:04 040 0 gusting 1 23.3
2016-Jul-29 05:59 039 0 gusting 1 23.3
2016-Jul-29 05:54 315 0 gusting 2 22.8
2016-Jul-29 05:49 270 0 gusting 2 22.8
2016-Jul-29 05:44 282 1 gusting 2 22.8
2016-Jul-29 05:39 315 0 gusting 4 22.8
2016-Jul-29 05:34 274 0 gusting 2 23.3
2016-Jul-29 05:29 315 1 gusting 2 23.3
2016-Jul-29 05:24 270 0 gusting 2 23.3
2016-Jul-29 05:19 270 1 gusting 4 23.3
2016-Jul-29 05:14 270 1 gusting 6 23.3
2016-Jul-29 05:09 251 2 gusting 5 23.3
2016-Jul-29 05:04 255 2 gusting 5 23.3
2016-Jul-29 04:59 248 3 gusting 5 23.3
2016-Jul-29 04:54 248 2 gusting 5 23.3
2016-Jul-29 04:49 180 2 gusting 5 23.3
2016-Jul-29 04:44 180 1 gusting 2 23.3
2016-Jul-29 04:39 267 0 gusting 2 23.3
2016-Jul-29 04:34 250 0 gusting 1 23.3
2016-Jul-29 04:29 315 0 gusting 2 23.3
2016-Jul-29 04:24 267 0 gusting 2 23.3
2016-Jul-29 04:19 310 1 gusting 4 23.3
2016-Jul-29 04:14 270 2 gusting 5 23.3
2016-Jul-29 04:09 270 0 gusting 2 23.3
2016-Jul-29 04:04 268 0 gusting 2 23.3
2016-Jul-29 03:59 270 0 gusting 2 23.3
2016-Jul-29 03:54 315 0 gusting 2 23.3
2016-Jul-29 03:49 313 0 gusting 2 23.3
2016-Jul-29 03:44 308 0 gusting 4 23.9
2016-Jul-29 03:39 270 2 gusting 5 23.9
2016-Jul-29 03:34 270 1 gusting 2 23.9
2016-Jul-29 03:29 270 0 gusting 2 23.9
2016-Jul-29 03:24 273 1 gusting 2 23.9
2016-Jul-29 03:19 270 0 gusting 4 23.9
2016-Jul-29 03:14 262 1 gusting 5 23.9
2016-Jul-29 03:09 268 2 gusting 5 23.9
2016-Jul-29 03:04 248 2 gusting 5 23.9
2016-Jul-29 02:59 251 1 gusting 6 23.9
2016-Jul-29 02:54 250 5 gusting 6 23.9
2016-Jul-29 02:49 185 2 gusting 5 23.9
2016-Jul-29 02:44 248 2 gusting 5 23.9
2016-Jul-29 02:39 274 0 gusting 2 23.9
2016-Jul-29 02:34 270 0 gusting 2 23.9
2016-Jul-29 02:29 309 23.9
2016-Jul-29 02:24 270 0 gusting 0 23.9
2016-Jul-29 02:19 272 0 gusting 1 23.9
2016-Jul-29 02:14 274 23.9
2016-Jul-29 02:09 307 0 gusting 0 23.9
2016-Jul-29 02:04 248 23.9
2016-Jul-29 01:59 269 0 gusting 2 23.9
2016-Jul-29 01:54 313 0 gusting 2 23.9
2016-Jul-29 01:49 270 0 gusting 0 23.9
2016-Jul-29 01:44 135 23.9
2016-Jul-29 01:39 180 0 gusting 1 23.9
2016-Jul-29 01:34 248 0 gusting 2 23.9
2016-Jul-29 01:29 248 2 gusting 2 23.9
2016-Jul-29 01:24 257 0 gusting 0 23.9
2016-Jul-29 01:19 045 23.9
2016-Jul-29 01:14 090 23.9
2016-Jul-29 01:09 049 23.9
2016-Jul-29 01:04 090 0 gusting 0 23.9
2016-Jul-29 00:59 090 0 gusting 0 23.9
2016-Jul-29 00:54 045 0 gusting 1 23.9
2016-Jul-29 00:49 130 23.9
2016-Jul-29 00:44 047 0 gusting 1 24.4
2016-Jul-29 00:39 087 0 gusting 2 24.4
2016-Jul-29 00:34 045 1 gusting 4 24.4
2016-Jul-29 00:29 090 2 gusting 4 24.4
2016-Jul-29 00:24 090 1 gusting 2 24.4
2016-Jul-29 00:19 090 1 gusting 2 24.4
2016-Jul-29 00:14 090 1 gusting 2 24.4
2016-Jul-29 00:09 086 1 gusting 2 24.4
2016-Jul-29 00:04 045 24.4
2016-Jul-28 23:59 045 1 gusting 2 24.4
2016-Jul-28 23:54 045 0 gusting 1 24.4
2016-Jul-28 23:49 066 24.4
2016-Jul-28 23:44 090 24.4
2016-Jul-28 23:39 045 0 gusting 2 24.4
2016-Jul-28 23:34 045 0 gusting 2 24.4
2016-Jul-28 23:29 045 1 gusting 2 24.4
2016-Jul-28 23:24 275 0 gusting 2 24.4
2016-Jul-28 23:19 045 0 gusting 2 25.0
2016-Jul-28 23:14 090 0 gusting 4 25.0
2016-Jul-28 23:09 090 2 gusting 4 25.0
2016-Jul-28 23:04 090 2 gusting 5 25.0
2016-Jul-28 22:59 090 2 gusting 5 25.0
2016-Jul-28 22:54 090 3 gusting 6 25.0
2016-Jul-28 22:49 090 3 gusting 5 25.0
2016-Jul-28 22:44 090 2 gusting 5 25.0
2016-Jul-28 22:39 090 1 gusting 5 25.0
2016-Jul-28 22:34 090 1 gusting 2 25.0
2016-Jul-28 22:29 049 0 gusting 2 25.0
2016-Jul-28 22:24 053 1 gusting 4 25.0
2016-Jul-28 22:19 045 1 gusting 5 25.0
2016-Jul-28 22:14 090 3 gusting 5 25.0
2016-Jul-28 22:09 090 2 gusting 6 25.6
2016-Jul-28 22:04 045 3 gusting 7 25.6
2016-Jul-28 21:59 090 5 gusting 7 25.6
2016-Jul-28 21:54 090 5 gusting 6 25.6
2016-Jul-28 21:49 053 2 gusting 6 25.6
2016-Jul-28 21:44 049 3 gusting 6 25.6
2016-Jul-28 21:39 048 4 gusting 6 25.6
2016-Jul-28 21:34 090 3 gusting 6 25.6
2016-Jul-28 21:29 132 4 gusting 6 25.6
2016-Jul-28 21:24 090 4 gusting 6 25.6
2016-Jul-28 21:19 045 4 gusting 8 25.6
2016-Jul-28 21:14 090 4 gusting 6 26.1
2016-Jul-28 21:09 049 5 gusting 6 26.1
2016-Jul-28 21:04 090 5 gusting 7 26.1
2016-Jul-28 20:59 049 3 gusting 6 26.1
2016-Jul-28 20:54 090 2 gusting 6 26.1
2016-Jul-28 20:49 090 4 gusting 7 26.1
2016-Jul-28 20:44 093 5 gusting 7 26.1
2016-Jul-28 20:39 049 5 gusting 8 26.7
2016-Jul-28 20:34 090 5 gusting 8 26.7
2016-Jul-28 20:29 070 5 gusting 11 26.7
2016-Jul-28 20:24 086 6 gusting 11 26.7
2016-Jul-28 20:19 090 5 gusting 8 26.7
2016-Jul-28 20:14 086 5 gusting 11 26.7
2016-Jul-28 20:09 087 5 gusting 10 26.7
2016-Jul-28 20:04 090 5 gusting 8 27.2
2016-Jul-28 19:59 086 6 gusting 10 27.2
2016-Jul-28 19:54 090 6 gusting 11 27.2
2016-Jul-28 19:49 090 4 gusting 10 27.8
2016-Jul-28 19:44 090 6 gusting 10 27.8
2016-Jul-28 19:39 090 5 gusting 10 27.8
2016-Jul-28 19:34 090 4 gusting 7 28.3
2016-Jul-28 19:29 090 4 gusting 12 28.3
2016-Jul-28 19:24 090 6 gusting 11 28.3
2016-Jul-28 19:19 090 6 gusting 10 28.3
2016-Jul-28 19:14 090 4 gusting 8 28.9
2016-Jul-28 19:09 090 5 gusting 8 28.9
2016-Jul-28 19:04 090 5 gusting 8 29.4
2016-Jul-28 18:59 087 5 gusting 10 29.4
2016-Jul-28 18:54 090 7 gusting 11 29.4
2016-Jul-28 18:49 090 4 gusting 6 30.0
2016-Jul-28 18:44 090 5 gusting 11 30.0
2016-Jul-28 18:39 090 3 gusting 8 30.0
2016-Jul-28 18:34 085 2 gusting 6 30.0
2016-Jul-28 18:29 090 5 gusting 10 30.0
2016-Jul-28 18:24 094 5 gusting 10 30.6
2016-Jul-28 18:19 090 6 gusting 11 30.6
2016-Jul-28 18:14 090 5 gusting 11 30.6
2016-Jul-28 18:09 084 4 gusting 11 30.6
2016-Jul-28 18:04 090 5 gusting 12 30.6
2016-Jul-28 17:59 093 5 gusting 11 30.6
2016-Jul-28 17:54 090 7 gusting 13 31.1
2016-Jul-28 17:49 128 6 gusting 13 31.1
2016-Jul-28 17:44 319 6 gusting 11 31.1
2016-Jul-28 17:39 090 6 gusting 11 31.1
2016-Jul-28 17:34 090 7 gusting 13 31.7
2016-Jul-28 17:29 131 7 gusting 13 31.7
2016-Jul-28 17:24 090 7 gusting 13 31.7
2016-Jul-28 17:19 090 7 gusting 13 31.7
2016-Jul-28 17:14 087 4 gusting 11 31.7
2016-Jul-28 17:09 095 7 gusting 13 31.7
2016-Jul-28 17:04 090 7 gusting 13 32.2
2016-Jul-28 16:59 090 6 gusting 12 32.2
2016-Jul-28 16:54 045 6 gusting 11 32.2
2016-Jul-28 16:49 090 7 gusting 12 32.2
2016-Jul-28 16:44 088 6 gusting 13 32.2
2016-Jul-28 16:39 051 7 gusting 12 32.2
2016-Jul-28 16:34 090 6 gusting 11 32.2
2016-Jul-28 16:29 090 6 gusting 11 32.2
2016-Jul-28 16:24 131 5 gusting 13 32.2
2016-Jul-28 16:19 086 7 gusting 11 32.2
2016-Jul-28 16:14 090 7 gusting 13 32.2
2016-Jul-28 16:09 090 8 gusting 13 32.2
2016-Jul-28 16:04 090 7 gusting 13 32.2
2016-Jul-28 15:59 090 8 gusting 13 32.2
2016-Jul-28 15:54 131 6 gusting 12 32.2
2016-Jul-28 15:49 090 5 gusting 13 32.2
2016-Jul-28 15:44 045 8 gusting 13 32.2
2016-Jul-28 15:39 131 6 gusting 13 32.8
2016-Jul-28 15:34 129 6 gusting 14 32.8
2016-Jul-28 15:29 048 6 gusting 14 32.8
2016-Jul-28 15:24 091 6 gusting 13 32.8
2016-Jul-28 15:19 090 5 gusting 12 32.8
2016-Jul-28 15:14 098 6 gusting 11 33.3
2016-Jul-28 15:09 090 6 gusting 11 33.3
2016-Jul-28 15:04 140 5 gusting 12 32.8
2016-Jul-28 14:59 129 6 gusting 13 32.8
2016-Jul-28 14:54 086 9 gusting 13 32.8
2016-Jul-28 14:49 088 4 gusting 11 32.8
2016-Jul-28 14:44 048 6 gusting 14 32.2
2016-Jul-28 14:39 093 5 gusting 13 32.2
2016-Jul-28 14:34 090 6 gusting 13 32.8
2016-Jul-28 14:29 090 7 gusting 12 32.8
2016-Jul-28 14:24 090 7 gusting 15 32.8
2016-Jul-28 14:19 095 6 gusting 14 32.8
2016-Jul-28 14:14 090 9 gusting 13 32.8
2016-Jul-28 14:09 090 6 gusting 11 32.8
2016-Jul-28 14:04 090 7 gusting 13 33.3
2016-Jul-28 13:59 052 7 gusting 13 32.8
2016-Jul-28 13:54 093 5 gusting 11 32.8
2016-Jul-28 13:49 090 8 gusting 13 32.8
2016-Jul-28 13:44 090 7 gusting 12 32.8
2016-Jul-28 13:39 095 6 gusting 12 32.8
2016-Jul-28 13:34 090 8 gusting 14 32.8
2016-Jul-28 13:29 045 5 gusting 15 32.8
2016-Jul-28 13:24 087 7 gusting 14 32.8
2016-Jul-28 13:19 090 9 gusting 17 32.8
2016-Jul-28 13:14 086 6 gusting 13 32.8
2016-Jul-28 13:09 090 10 gusting 14 32.8
2016-Jul-28 13:04 131 5 gusting 15 32.8
2016-Jul-28 12:59 095 5 gusting 13 32.8
2016-Jul-28 12:54 049 5 gusting 14 32.8
2016-Jul-28 12:49 090 10 gusting 18 32.8
2016-Jul-28 12:44 090 7 gusting 17 32.8
2016-Jul-28 12:39 093 7 gusting 17 32.8
2016-Jul-28 12:34 123 4 gusting 11 32.8
2016-Jul-28 12:29 090 7 gusting 14 32.8
2016-Jul-28 12:24 095 8 gusting 14 32.8
2016-Jul-28 12:19 095 6 gusting 11 32.8
2016-Jul-28 12:14 090 6 gusting 12 32.8
2016-Jul-28 12:09 086 7 gusting 13 32.8
2016-Jul-28 12:04 130 2 gusting 13 32.2
2016-Jul-28 11:59 094 7 gusting 14 32.2
2016-Jul-28 11:54 090 6 gusting 14 32.2
2016-Jul-28 11:49 094 8 gusting 14 32.2
2016-Jul-28 11:44 090 8 gusting 14 32.2
2016-Jul-28 11:39 157 6 gusting 14 32.2
2016-Jul-28 11:34 090 6 gusting 14 32.2
2016-Jul-28 11:29 090 7 gusting 13 31.7
2016-Jul-28 11:24 090 7 gusting 13 31.7
2016-Jul-28 11:19 090 8 gusting 13 32.2
2016-Jul-28 11:14 090 8 gusting 13 32.2
2016-Jul-28 11:09 098 4 gusting 10 32.2
2016-Jul-28 11:04 093 6 gusting 13 32.2
2016-Jul-28 10:59 130 6 gusting 11 32.2
2016-Jul-28 10:54 090 6 gusting 11 32.2
2016-Jul-28 10:49 135 5 gusting 12 32.2
2016-Jul-28 10:44 094 6 gusting 14 31.7
2016-Jul-28 10:39 092 6 gusting 14 31.7
2016-Jul-28 10:34 135 4 gusting 11 31.7
2016-Jul-28 10:29 048 4 gusting 10 31.7
2016-Jul-28 10:24 092 4 gusting 12 31.7
2016-Jul-28 10:19 135 7 gusting 13 31.1
2016-Jul-28 10:14 138 6 gusting 12 31.1
2016-Jul-28 10:09 049 6 gusting 11 30.6
2016-Jul-28 10:04 177 2 gusting 7 30.6
2016-Jul-28 09:59 090 5 gusting 8 30.6
2016-Jul-28 09:54 054 3 gusting 8 30.6
2016-Jul-28 09:49 090 6 gusting 10 30.0
2016-Jul-28 09:44 251 4 gusting 7 30.0
2016-Jul-28 09:39 178 4 gusting 10 29.4
2016-Jul-28 09:29 090 4 gusting 8 29.4
2016-Jul-28 09:19 039 5 gusting 8 28.9
2016-Jul-28 09:14 045 4 gusting 13 28.9
2016-Jul-28 09:09 090 4 gusting 13 28.9
2016-Jul-28 09:04 088 4 gusting 11 28.3
2016-Jul-28 08:59 090 6 gusting 10 28.3
2016-Jul-28 08:54 135 2 gusting 8 28.3
2016-Jul-28 08:49 090 6 gusting 8 28.3
2016-Jul-28 08:44 090 5 gusting 7 28.3
2016-Jul-28 08:39 090 4 gusting 8 28.3
2016-Jul-28 08:34 084 3 gusting 8 28.3
2016-Jul-28 08:29 090 1 gusting 5 28.3
2016-Jul-28 08:24 130 4 gusting 6 28.3
2016-Jul-28 08:19 335 1 gusting 8 27.8
2016-Jul-28 08:14 090 2 gusting 6 28.3
2016-Jul-28 08:09 270 2 gusting 6 28.3
2016-Jul-28 08:04 092 2 gusting 6 28.3
2016-Jul-28 07:59 086 2 gusting 5 28.3
2016-Jul-28 07:54 174 0 gusting 2 28.3
2016-Jul-28 07:49 135 0 gusting 2 27.8
2016-Jul-28 07:44 049 27.2
2016-Jul-28 07:39 270 0 gusting 1 27.2
2016-Jul-28 07:34 273 0 gusting 2 26.7
2016-Jul-28 07:29 270 0 gusting 1 26.1
2016-Jul-28 07:24 270 0 gusting 1 26.1
2016-Jul-28 07:19 315 0 gusting 2 26.1
2016-Jul-28 07:14 038 1 gusting 2 25.6
2016-Jul-28 07:09 273 0 gusting 2 25.6
2016-Jul-28 07:04 270 1 gusting 5 25.6
2016-Jul-28 06:59 314 1 gusting 5 25.6
2016-Jul-28 06:54 315 0 gusting 2 25.0
2016-Jul-28 06:49 315 0 gusting 2 25.0
2016-Jul-28 06:44 187 1 gusting 5 25.0
2016-Jul-28 06:39 248 1 gusting 2 24.4
2016-Jul-28 06:34 268 0 gusting 2 24.4
2016-Jul-28 06:29 309 1 gusting 4 24.4
2016-Jul-28 06:24 268 24.4
2016-Jul-28 06:19 252 0 gusting 5 23.9
2016-Jul-28 06:14 274 2 gusting 5 23.9
2016-Jul-28 06:09 241 1 gusting 5 23.9
2016-Jul-28 06:04 248 3 gusting 5 23.3
2016-Jul-28 05:59 244 2 gusting 5 23.3
2016-Jul-28 05:54 243 1 gusting 5 23.3
2016-Jul-28 05:49 243 2 gusting 5 23.3
2016-Jul-28 05:44 248 1 gusting 5 23.3
2016-Jul-28 05:39 200 1 gusting 5 23.3
2016-Jul-28 05:34 244 2 gusting 4 23.3
2016-Jul-28 05:29 248 1 gusting 4 23.3
2016-Jul-28 05:24 248 0 gusting 0 23.3
2016-Jul-28 05:19 250 23.3
2016-Jul-28 05:14 270 0 gusting 0 23.3
2016-Jul-28 05:09 248 0 gusting 0 23.3
2016-Jul-28 05:04 308 0 gusting 2 23.3
2016-Jul-28 04:59 270 0 gusting 2 23.3
2016-Jul-28 04:54 256 2 gusting 4 23.3
2016-Jul-28 04:49 250 1 gusting 4 23.3
2016-Jul-28 04:44 248 2 gusting 2 23.3
2016-Jul-28 04:39 188 1 gusting 5 23.9
2016-Jul-28 04:34 267 2 gusting 4 23.9
2016-Jul-28 04:29 268 1 gusting 2 23.9
2016-Jul-28 04:24 250 0 gusting 2 23.9
2016-Jul-28 04:19 270 0 gusting 1 23.9
2016-Jul-28 04:14 248 0 gusting 2 23.9
2016-Jul-28 04:09 310 1 gusting 2 23.9
2016-Jul-28 04:04 315 0 gusting 2 23.9
2016-Jul-28 03:59 248 1 gusting 2 23.9
2016-Jul-28 03:54 268 0 gusting 4 23.9
2016-Jul-28 03:49 273 1 gusting 4 23.9
2016-Jul-28 03:44 250 2 gusting 4 23.9
2016-Jul-28 03:39 270 1 gusting 4 23.9
2016-Jul-28 03:34 270 2 gusting 5 23.9
2016-Jul-28 03:29 270 1 gusting 2 23.9
2016-Jul-28 03:24 248 0 gusting 4 23.9
2016-Jul-28 03:19 250 0 gusting 2 23.9
2016-Jul-28 03:14 250 0 gusting 2 23.9
2016-Jul-28 03:09 270 23.9
2016-Jul-28 03:04 315 23.9
2016-Jul-28 02:59 315 23.9
2016-Jul-28 02:54 180 23.9
2016-Jul-28 02:49 090 23.9
2016-Jul-28 02:44 180 23.9
2016-Jul-28 02:39 090 23.9
2016-Jul-28 02:34 240 0 gusting 1 23.9
2016-Jul-28 02:29 135 23.9
2016-Jul-28 02:24 135 23.9
2016-Jul-28 02:19 131 23.9
2016-Jul-28 02:14 090 23.9
2016-Jul-28 02:09 045 24.4
2016-Jul-28 02:04 045 24.4